Visalia, CA

1:13 AM PDT on April 26, 2017 (GMT -0700)
Visalia Municipal

Weather History for KVIS - January, 2013

Change the Weather History Date:

Sunday, January 6, 2013

  Actual Average Record
Temperature  
Mean Temperature 46 °F -  
Max Temperature 51 °F 51 °F 73 °F (1948)
Min Temperature 42 °F 35 °F 22 °F (1949)
Degree Days  
Heating Degree Days 18    
Moisture  
Dew Point 41 °F    
Average Humidity 78    
Maximum Humidity 87    
Minimum Humidity 62    
Precipitation  
Precipitation 0.11 in - - ()
Sea Level Pressure  
Sea Level Pressure 30.14 in    
Wind  
Wind Speed 9 mph (SE)    
Max Wind Speed 17 mph    
Max Gust Speed 23 mph    
Visibility 10 miles    
Events      
Averages and records for this station are not official NWS values.
T = Trace of Precipitation, MM = Missing Value Source: NWS Daily Summary

Daily Weather History Graph

Daily Weather History Graph

Search for Another Location

Airport or City:

Trip Planner

Search our weather history database for the weather conditions in past years. The results will help you decide how hot, cold, wet, or windy it might be!

Date:

Astronomy

Jan. 06, 2013 Rise Set
Actual Time 7:09 AM PST 4:57 PM PST
Civil Twilight 6:41 AM PST 5:26 PM PST
Nautical Twilight 6:09 AM PST 5:58 PM PST
Astronomical Twilight 5:37 AM PST 6:29 PM PST
Moon 1:33 AM PST (1/6) 12:25 PM PST (1/6)
Length of Visible Light 10h 45m
Length of Day
9h 48m
Waning Crescent, 32% of the Moon is Illuminated
Jan 6
Waning Crescent
Jan 11
New
Jan 18
First Quarter
Jan 26
Full
Feb 3
Last Quarter

Hourly Weather History & Observations

Time (PST) Temp. Windchill Dew Point Humidity Pressure Visibility Wind Dir Wind Speed Gust Speed Precip Events Conditions
12:15 AM 48.2 °F - 41.0 °F 76% 30.12 in 10.0 mi SW 10.4 mph 16.1 mph N/A   Overcast
12:35 AM 50.0 °F - 42.8 °F 76% 30.12 in 10.0 mi SSW 11.5 mph 16.1 mph N/A   Overcast
12:55 AM 48.2 °F - 42.8 °F 82% 30.13 in 10.0 mi SSW 17.3 mph 23.0 mph N/A   Overcast
1:15 AM 50.0 °F - 42.8 °F 76% 30.14 in 10.0 mi SSW 11.5 mph - 0.01 in   Overcast
1:35 AM 48.2 °F - 42.8 °F 82% 30.15 in 10.0 mi South 10.4 mph - 0.05 in   Overcast
1:55 AM 48.2 °F - 42.8 °F 82% 30.15 in 10.0 mi SE 10.4 mph - 0.09 in   Overcast
2:15 AM 48.2 °F - 42.8 °F 82% 30.15 in 10.0 mi SE 12.7 mph - 0.02 in   Overcast
2:35 AM 48.2 °F - 42.8 °F 82% 30.14 in 10.0 mi SE 13.8 mph - 0.02 in   Overcast
2:55 AM 46.4 °F 40.7 °F 42.8 °F 87% 30.15 in 10.0 mi SE 12.7 mph - 0.02 in   Overcast
3:15 AM 46.4 °F 41.5 °F 42.8 °F 87% 30.15 in 10.0 mi SE 10.4 mph - N/A   Mostly Cloudy
3:35 AM 46.4 °F 42.4 °F 42.8 °F 87% 30.15 in 10.0 mi ESE 8.1 mph - N/A   Overcast
4:15 AM 46.4 °F 42.4 °F 41.0 °F 81% 30.15 in 10.0 mi SE 8.1 mph - N/A   Overcast
4:35 AM 46.4 °F 41.5 °F 41.0 °F 81% 30.15 in 10.0 mi SE 10.4 mph - N/A   Mostly Cloudy
5:15 AM 44.6 °F 39.7 °F 41.0 °F 87% 30.14 in 10.0 mi SE 9.2 mph - N/A   Overcast
5:35 AM 44.6 °F 40.2 °F 39.2 °F 81% 30.13 in 10.0 mi SE 8.1 mph - N/A   Overcast
5:55 AM 44.6 °F 40.2 °F 39.2 °F 81% 30.14 in 10.0 mi SSE 8.1 mph - N/A   Overcast
6:15 AM 44.6 °F 39.7 °F 39.2 °F 81% 30.13 in 10.0 mi SSE 9.2 mph - N/A   Overcast
6:35 AM 44.6 °F 38.8 °F 39.2 °F 81% 30.13 in 10.0 mi SSE 11.5 mph - N/A   Overcast
6:55 AM 44.6 °F 39.7 °F 39.2 °F 81% 30.13 in 10.0 mi SSE 9.2 mph - N/A   Overcast
7:15 AM 46.4 °F 40.7 °F 39.2 °F 76% 30.13 in 10.0 mi South 12.7 mph - N/A   Overcast
7:35 AM 46.4 °F 41.5 °F 39.2 °F 76% 30.14 in 10.0 mi South 10.4 mph - N/A   Overcast
7:55 AM 46.4 °F 41.9 °F 39.2 °F 76% 30.14 in 10.0 mi South 9.2 mph - N/A   Overcast
8:15 AM 46.4 °F 42.9 °F 39.2 °F 76% 30.14 in 10.0 mi SE 6.9 mph - N/A   Overcast
8:35 AM 46.4 °F 41.9 °F 41.0 °F 81% 30.14 in 10.0 mi SSE 9.2 mph - N/A   Mostly Cloudy
8:55 AM 48.2 °F - 42.8 °F 82% 30.15 in 10.0 mi SSE 10.4 mph - N/A   Clear
9:15 AM 48.2 °F - 41.0 °F 76% 30.15 in 10.0 mi SSE 12.7 mph - N/A   Clear
9:35 AM 48.2 °F - 41.0 °F 76% 30.17 in 10.0 mi SE 6.9 mph - N/A   Mostly Cloudy
9:55 AM 48.2 °F - 42.8 °F 82% 30.17 in 10.0 mi SE 8.1 mph - N/A   Overcast
10:15 AM 48.2 °F - 41.0 °F 76% 30.17 in 10.0 mi SE 11.5 mph - N/A   Overcast
10:35 AM 48.2 °F - 41.0 °F 76% 30.16 in 10.0 mi ESE 12.7 mph - N/A   Overcast
10:55 AM 48.2 °F - 42.8 °F 82% 30.16 in 10.0 mi ESE 9.2 mph - N/A   Overcast
11:15 AM 50.0 °F - 41.0 °F 71% 30.15 in 10.0 mi ESE 10.4 mph - N/A   Overcast
11:35 AM 50.0 °F - 41.0 °F 71% 30.14 in 10.0 mi SE 12.7 mph 16.1 mph N/A   Overcast
11:55 AM 50.0 °F - 41.0 °F 71% 30.13 in 10.0 mi SE 8.1 mph - N/A   Mostly Cloudy
12:15 PM 51.8 °F - 42.8 °F 71% 30.12 in 10.0 mi ESE 6.9 mph - N/A   Overcast
12:35 PM 50.0 °F - 41.0 °F 71% 30.12 in 10.0 mi ESE 6.9 mph - N/A   Overcast
12:55 PM 50.0 °F - 41.0 °F 71% 30.11 in 10.0 mi SE 5.8 mph - N/A   Overcast
1:15 PM 50.0 °F - 39.2 °F 66% 30.11 in 10.0 mi Calm Calm - N/A   Overcast
1:35 PM 50.0 °F - 39.2 °F 66% 30.10 in 10.0 mi SE 3.5 mph - N/A   Overcast
1:55 PM 51.8 °F - 39.2 °F 62% 30.10 in 10.0 mi Calm Calm - N/A   Overcast
2:15 PM 51.8 °F - 39.2 °F 62% 30.10 in 10.0 mi Calm Calm - N/A   Overcast
2:35 PM 51.8 °F - 41.0 °F 67% 30.10 in 10.0 mi Calm Calm - N/A   Overcast
2:55 PM 51.8 °F - 42.8 °F 71% 30.10 in 10.0 mi NNE 5.8 mph - N/A   Overcast
3:15 PM 50.0 °F - 41.0 °F 71% 30.10 in 10.0 mi NNE 5.8 mph - N/A   Overcast
3:35 PM 50.0 °F - 42.8 °F 76% 30.11 in 10.0 mi North 4.6 mph - N/A   Mostly Cloudy
3:55 PM 50.0 °F - 41.0 °F 71% 30.11 in 10.0 mi North 5.8 mph - N/A   Overcast
4:15 PM 50.0 °F - 42.8 °F 76% 30.11 in 10.0 mi North 4.6 mph - N/A   Overcast
4:35 PM 48.2 °F - 42.8 °F 82% 30.11 in 10.0 mi North 5.8 mph - N/A   Overcast
4:55 PM 48.2 °F - 39.2 °F 71% 30.11 in 10.0 mi NW 3.5 mph - N/A   Scattered Clouds
5:15 PM 46.4 °F 44.3 °F 41.0 °F 81% 30.10 in 10.0 mi NW 4.6 mph - N/A   Clear
5:35 PM 44.6 °F 41.4 °F 39.2 °F 81% 30.11 in 10.0 mi NNW 5.8 mph - N/A   Clear
5:55 PM 44.6 °F 42.2 °F 39.2 °F 81% 30.11 in 10.0 mi NNW 4.6 mph - N/A   Clear
6:15 PM 42.8 °F 39.3 °F 39.2 °F 87% 30.11 in 10.0 mi NNW 5.8 mph - N/A   Clear
6:35 PM 42.8 °F 39.3 °F 39.2 °F 87% 30.12 in 10.0 mi NNW 5.8 mph - N/A   Clear
7:15 PM 44.6 °F 40.7 °F 39.2 °F 81% 30.12 in 10.0 mi WNW 6.9 mph - N/A   Partly Cloudy
8:15 PM 42.8 °F 38.0 °F 39.2 °F 87% 30.15 in 5.0 mi NW 8.1 mph - N/A   Mostly Cloudy
8:35 PM 42.8 °F 37.5 °F 39.2 °F 87% 30.14 in 7.0 mi NW 9.2 mph - N/A   Overcast
8:55 PM 42.8 °F 37.5 °F 39.2 °F 87% 30.15 in 10.0 mi NW 9.2 mph - N/A   Mostly Cloudy
9:35 PM 42.8 °F 38.0 °F 39.2 °F 87% 30.16 in 10.0 mi NW 8.1 mph - N/A   Overcast
9:55 PM 42.8 °F 39.3 °F 37.4 °F 81% 30.17 in 8.0 mi NW 5.8 mph - N/A   Overcast
10:15 PM 42.8 °F 38.6 °F 39.2 °F 87% 30.17 in 8.0 mi NW 6.9 mph - N/A   Overcast
10:35 PM 42.8 °F 39.3 °F 39.2 °F 87% 30.18 in 9.0 mi NNW 5.8 mph - N/A   Overcast
10:55 PM 44.6 °F 41.4 °F 39.2 °F 81% 30.18 in 8.0 mi NW 5.8 mph - N/A   Overcast
11:15 PM 44.6 °F 40.7 °F 39.2 °F 81% 30.18 in 9.0 mi NNW 6.9 mph - N/A   Overcast
11:35 PM 44.6 °F 43.1 °F 39.2 °F 81% 30.17 in 6.0 mi NW 3.5 mph - N/A   Overcast
11:55 PM 44.6 °F 42.2 °F 39.2 °F 81% 30.16 in 5.0 mi WNW 4.6 mph - N/A   Overcast